Weather History for Rocky Mount, NC

Change the Weather History Date:

Sunday, February 17, 2013

  Actual Average Record
Temperature  
Mean Temperature 32 °F -  
Max Temperature 36 °F 55 °F 80 °F (1976)
Min Temperature 23 °F 34 °F 10 °F (1958)
Degree Days  
Heating Degree Days 34    
Moisture  
Dew Point 16 °F    
Average Humidity 58    
Maximum Humidity 87    
Minimum Humidity 30    
Precipitation  
Precipitation 0.00 in - - ()
Sea Level Pressure  
Sea Level Pressure 30.07 in    
Wind  
Wind Speed 10 mph (WNW)    
Max Wind Speed 21 mph    
Max Gust Speed 31 mph    
Visibility 10 miles    
Events      
Averages and records for this station are not official NWS values.
T = Trace of Precipitation, MM = Missing Value Source: NWS Daily Summary

Daily Weather History Graph

Daily Weather History Graph

Search for Another Location

Airport:

Trip Planner

Search our weather history database for the weather conditions in past years. The results will help you decide how hot, cold, wet, or windy it might be!

Date:

Astronomy

Feb. 17, 2013 Rise Set
Actual Time 6:56 AM EST 5:55 PM EST
Civil Twilight 6:30 AM EST 6:21 PM EST
Nautical Twilight 6:00 AM EST 6:51 PM EST
Astronomical Twilight 5:30 AM EST 7:21 PM EST
Moon 11:03 AM EST (2/17) 12:34 AM EST (2/17)
Length of Visible Light 11h 51m
Length of Day
10h 59m
Waxing Crescent, 49% of the Moon is Illuminated
Feb 17
Waxing Crescent
Feb 17
First Quarter
Feb 25
Full
Mar 4
Last Quarter
Mar 11
New

Hourly Weather History & Observations

Time (EST) Temp. Windchill Dew Point Humidity Pressure Visibility Wind Dir Wind Speed Gust Speed Precip Events Conditions
12:30 AM 33.8 °F 27.7 °F 30.2 °F 87% 29.89 in 10.0 mi WNW 6.9 mph - N/A   Mostly Cloudy
12:53 AM 33.1 °F 26.1 °F 28.9 °F 85% 29.90 in 10.0 mi WNW 8.1 mph - N/A   Mostly Cloudy
1:53 AM 32.0 °F 23.6 °F 28.0 °F 85% 29.92 in 10.0 mi WNW 10.4 mph - N/A   Overcast
2:53 AM 32.0 °F 21.6 °F 23.0 °F 69% 29.94 in 10.0 mi NW 15.0 mph 24.2 mph N/A   Overcast
3:53 AM 30.9 °F 22.8 °F 24.1 °F 76% 29.95 in 10.0 mi West 9.2 mph - N/A   Mostly Cloudy
4:53 AM 28.9 °F 21.9 °F 21.0 °F 72% 29.97 in 10.0 mi WNW 6.9 mph - N/A   Clear
5:53 AM 28.0 °F 18.6 °F 19.9 °F 72% 29.99 in 10.0 mi West 10.4 mph - N/A   Clear
6:53 AM 27.0 °F 18.7 °F 19.0 °F 72% 30.02 in 10.0 mi WNW 8.1 mph - N/A   Clear
7:53 AM 28.0 °F 19.3 °F 19.0 °F 69% 30.05 in 10.0 mi WNW 9.2 mph - N/A   Clear
8:53 AM 28.9 °F 20.4 °F 18.0 °F 64% 30.07 in 10.0 mi WNW 9.2 mph 19.6 mph N/A   Clear
9:53 AM 30.0 °F 17.5 °F 16.0 °F 56% 30.09 in 10.0 mi NW 19.6 mph 28.8 mph N/A   Partly Cloudy
10:53 AM 30.9 °F 19.1 °F 15.1 °F 52% 30.11 in 10.0 mi West 18.4 mph 29.9 mph N/A   Overcast
11:53 AM 32.0 °F 22.5 °F 12.9 °F 45% 30.12 in 10.0 mi NW 12.7 mph 20.7 mph N/A   Scattered Clouds
12:53 PM 33.1 °F 21.5 °F 10.0 °F 38% 30.11 in 10.0 mi WNW 19.6 mph 27.6 mph N/A   Clear
1:53 PM 34.0 °F 24.2 °F 10.0 °F 37% 30.10 in 10.0 mi West 15.0 mph 24.2 mph N/A   Clear
2:53 PM 35.1 °F 26.9 °F 8.1 °F 33% 30.10 in 10.0 mi West 11.5 mph 25.3 mph N/A   Partly Cloudy
3:53 PM 36.0 °F 25.0 °F 7.0 °F 30% 30.11 in 10.0 mi West 20.7 mph 31.1 mph N/A   Clear
4:53 PM 36.0 °F 28.0 °F 8.1 °F 31% 30.13 in 10.0 mi West 11.5 mph 24.2 mph N/A   Clear
5:53 PM 34.0 °F 27.2 °F 7.0 °F 32% 30.15 in 10.0 mi WNW 8.1 mph - N/A   Clear
6:53 PM 30.9 °F 26.2 °F 9.0 °F 40% 30.17 in 10.0 mi WNW 4.6 mph - N/A   Clear
7:53 PM 28.0 °F - 12.9 °F 53% 30.20 in 10.0 mi Calm Calm - N/A   Clear
8:53 PM 28.0 °F 24.2 °F 14.0 °F 56% 30.23 in 10.0 mi NW 3.5 mph - N/A   Clear
10:53 PM 23.0 °F - 16.0 °F 74% 30.27 in 10.0 mi Calm Calm - N/A   Clear